Location: Beddau
(51.5575°N, 3.3561°W)
Time: 12:29:23
(UTC+00:00)

BREEZE-M DEB (TANK) - Pass Details

Date: 03 March 2021
Orbit: 308 x 15404 km, 49.5° (Epoch: 10 April)

Event Time Altitude Azimuth Distance (km) Brightness Sun altitude
Rises 19:42:01 0° 266° (W) 2,054 6.8 -17.0°
Reaches altitude 10° 19:43:26 10° 262° (W) 1,339 5.4 -17.2°
Maximum altitude 19:45:53 66° 179° (S) 558 2.2 -17.6°
Enters shadow 19:47:19 36° 109° (ESE) 1,010 3.1 -17.8°
